STARLINK-34566

Last updated on Sat Jul 19 2025 00:02:09 GMT+0000 (Coordinated Universal Time)

1 64765U 25147L 25199.58335648 -.01535010 00000+0 -10545-1 0 9997 2 64765 53.1572 256.8522 0000870 83.9166 331.8286 15.77031584 2814
UTC large
Height (km)
Speed (km/s)
/
Latitude / Longitude
Inclination (degrees)
Orbital Period (minutes)
Azimuth
Elevation
Range (km)
Doppler Factor

Next 0 passes for location: London (51.5072 / 0.1276)

Sorry there are no passes over London.